Showing default

TELSTAR 19V, 43562

Orbit data source: Space-Track

TELSTAR 19V, 43562 is a payload satellite owned by Telesat/Skynet (CA) in GEO that was launched on Sun, 22 Jul 2018 UTC via an FALCON 9 launch vehicle from the Air Force Eastern Test Range (AFETR). Payload-class satellites include a variety of spacecraft equipped with specific instruments for various scientific and technological missions. These include communications satellites like Starlink; space stations such as the ISS; scientific satellites like the Hubble; Earth observation satellites from companies like Planet Labs, Umbra, and HawkEye 360; GPS; miniature CubeSats for education and research; and military/defense satellites.

Loading next visibility...
Identifier
43562, 2018-059A
Orbit
GEO
Last TLE update
12 hours ago
Origin
Manufacturer
Maxar SSL
Mission
Operational Commercial Communications
Bus & Motor
LS-1300, R-4D
Mass
7,075 kg wet, ~2,000 kg dry
Launch date (UTC)
2018-07-22 (7 years ago)
Launch vehicle
FALCON 9
Launch site
Air Force Eastern Test Range (AFETR)
Object type
Payload
Rocket body
Debris
Shape & HBR
Box + 2 Pan, 26.1 m
Radar Cross Section
120.644 m², Large (>1 m²)

Expand to show TLE details & history

TLE from 12 hours ago
0 TELSTAR 19V
1 43562U 18059A   25183.68353155 -.00000271  00000-0  00000-0 0  9999
2 43562   0.0416 188.6977 0002922 290.8075 344.5099  1.00270970 25642
Epoch: 2025-07-02T16:24Z
TLE epoch observation values (Epoch: 2025-07-02T16:24:17.125Z)
Latitude
-0.01899°
Longitude
-63.01713°
Altitude
35,774.399 km
Speed
3.076 km/s
True Right ascension
06h 56m 03s
True Declination
0° 01' 08"
Sunlit
Object was in daylight at epoch
Visualization orbit readout
Latitude
0.01743°
Longitude
122.82029°
Altitude
35,798.553 km
Speed
3.074 km/s
Apparent Right ascension
19h 38m 53s
Apparent Declination
-5° 59' 20"
Sunlit
Object is in daylight
Visualization observer readout
Local Sidereal Time
16:30:57
Azimuth
125.327° SE
Elevation
26.964°
Doppler factor
1
Orbital elements
Apogee altitude
35,800.215 km
Perigee altitude
35,775.573 km
Semi-major axis
42,166.031 km
Eccentricity
0.00029
Inclination
0.0416°
RAAN
188.6977°
Arg. of periapsis
290.8075°
True anomaly
Unknown
Mean anomaly
344.5099°
Eccentric anomaly
Unknown
Mean motion
0.25067 °/min
Orbital period
1,436.16 mins
BSTAR
0
Loading historical data...
43562 neighbors
Loading maneuver chart data...
Loading SW <> Apogee altitude chart data...
Loading historical data...
Loading historical data...
Loading historical data...
Loading historical data...
Loading historical data...
Loading historical data...
Loading historical data...
Other satellites on launch #59 in the year 2018 (2018-07-22 UTC)

TELSTAR 19V Visibility forecast

Observer location: undefined°, undefined°

Span
Click to sort rows by Start time (UTC) header in descending order
Start Az.
Max El. time (UTC)
Max El. Az.
Max El.
End time (UTC)
End Az.
1440 mins2025-07-03 04:45:33.569Z125.341° SE2025-07-03 08:31:33.569Z125.386° SE24.387°2025-07-04 04:45:33.569Z125.352° SE
|